Welcome to the New NWS' Forecast!
Most changes are behind the scenes, but click here for differences you might notice.
Latest weather observations around

Los Angeles, Los Angeles International Airport (KLAX)

Using English Units (Switch to International System of Units)
Date/ Time (PST) Wind (mph) Vis. (mi) Weather Sky Cond. Temp (°F) Rel. Humidity Wind Chill (°F) Heat Index (°F) Pressure Precip. (in)
Air Dwpt 6 hour Altimeter (inHg) Sea level (inHg) 1 hr 3 hr 6 hr
Max Min
Jan 21 07:53 ENE 5 10 Partly Cloudy FEW200 SCT270 50 27     41% 48   30.26 30.26      
Jan 21 06:53 ENE 6 10 Mostly Clear FEW200 FEW270 47 26     44% 44   30.24 30.23      
Jan 21 05:53 Calm 10 Mostly Clear FEW200 44 27     51%     30.22 30.21      
Jan 21 04:53 ENE 5 10 Clear CLR 45 27     49% 43   30.21 30.2      
Jan 21 03:53 Calm 10 Clear CLR 47 26     44%     30.2 30.19      
Jan 21 02:53 NNE 3 10 Clear CLR 47 27     46% 46   30.2 30.19      
Jan 21 01:53 N 5 10 Clear CLR 52 24     33%     30.19 30.19      
Jan 21 00:53 N 6 10 Clear CLR 53 25     33%     30.17 30.16      
Jan 20 23:53 NW 6 10 Clear CLR 54 26     34%     30.16 30.16      
Jan 20 22:53 NNW 15 10 Clear CLR 54 26     34%     30.16 30.15      
Jan 20 21:53 NW 17 10 Clear CLR 54 26     34%     30.15 30.15      
Jan 20 20:53 WNW 13 10 Clear CLR 55 26     32%     30.15 30.14      
Jan 20 18:53 N 21 10 Mostly Clear and Windy FEW060 57 22     25%     30.09 30.09      
Jan 20 17:53 N 11 10 Mostly Clear FEW060 FEW090 58 24     27%     30.08 30.08      
Jan 20 16:53 WNW 16 10 Mostly Clear FEW090 60 41     49%     30.07 30.06      
Jan 20 15:53 WNW 11 10 Mostly Clear FEW047 FEW090 61 38     42%     30.05 30.04      
Jan 20 14:53   10 Mostly Clear FEW047 FEW090 62 38     41%     30.04 30.03      
Jan 20 13:53 W 14 10 Mostly Clear FEW047 FEW090 61 35     38%     30.04 30.03      
Jan 20 12:53 NNW 8 10 Partly Cloudy FEW045 FEW090 SCT120 62 28     27%     30.03 30.03      
Jan 20 11:53 NW 18 10 Partly Cloudy FEW045 FEW090 SCT120 61 27     27%     30.05 30.05      
Jan 20 10:53 NNW 20 10 Partly Cloudy and Windy FEW045 FEW090 SCT120 SCT180 60 29     31%     30.06 30.06      
Jan 20 09:53 NNW 17 10 Partly Cloudy FEW090 FEW120 SCT180 58 30     34%     30.06 30.06      
Jan 20 08:53 N 15 10 Mostly Cloudy FEW050 FEW090 SCT120 SCT180 BKN220 57 30     36%     30.03 30.03      
Jan 20 07:53 NNW 18 10 Mostly Cloudy FEW050 SCT095 SCT180 BKN220 55 31     40%     30 30      
Jan 20 06:53 WNW 13 10 Partly Cloudy FEW047 FEW065 SCT120 SCT180 54 31     41%     29.99 29.98      
Jan 20 05:53 NNW 9 10 Partly Cloudy SCT180 53 32     45%     29.96 29.96      
Jan 20 04:53 NNW 11 10 Mostly Cloudy FEW030 BKN150 54 31     41%     29.94 29.94      
Jan 20 03:53 NW 8 10 Mostly Cloudy SCT030 BKN060 54 33     45%     29.94 29.94     0
Jan 20 02:53 NNW 9 10 Mostly Cloudy BKN040 BKN065 55 31     40%     29.93 29.93 0    
Jan 20 01:53 NNW 9 10 Mostly Cloudy BKN037 BKN060 56 31     38%     29.93 29.93      
Jan 20 00:53 NNW 6 10 Mostly Cloudy BKN055 BKN070 56 30     37%     29.93 29.93      
Jan 19 23:53 N 11 10 Partly Cloudy SCT028 SCT060 56 32     40%     29.93 29.92      
Jan 19 22:53 NNW 7 10 Partly Cloudy FEW017 FEW027 SCT200 56 34     43%     29.93 29.93      
Jan 19 21:53 N 10 10 Mostly Cloudy SCT026 BKN200 57 45     64%     29.93 29.92      
Jan 19 20:53 ESE 5 10 Mostly Cloudy SCT027 BKN200 58 48     70%     29.92 29.91      
Jan 19 19:53 WSW 9 10 Mostly Cloudy SCT030 BKN200 58 48     70%     29.92 29.91      
Jan 19 18:53 W 10 10 Mostly Cloudy SCT025 BKN200 58 50     75%     29.92 29.91      
Jan 19 17:53 W 14 10 Mostly Cloudy BKN021 BKN180 58 51     78%     29.91 29.91      
Jan 19 16:53 W 11 10 Mostly Cloudy SCT013 BKN019 BKN031 59 52     78%     29.91 29.91      
Jan 19 15:53 W 17 10 Cloudy SCT013 BKN018 OVC024 60 53     78%     29.93 29.93     0
Jan 19 14:53 W 14 8 Cloudy BKN011 BKN020 OVC070 60 55     83%     29.93 29.93      
Jan 19 13:53 W 8 6 Fog/Mist BKN009 BKN011 OVC029 60 57     90%     29.94 29.94 0    
Jan 19 13:31 W 9 4 Light Rain and Fog/Mist SCT024 OVC028 59 57     93%     29.95   0    
Jan 19 12:53 WSW 13 7 Mostly Cloudy SCT024 BKN030 BKN035 61 55     81%     29.96 29.96      
Jan 19 12:24 WSW 10 7 Mostly Cloudy SCT024 BKN030 BKN035 62 55     78%     29.98        
Jan 19 11:53 WSW 11 6 Haze BKN022 BKN027 62 55     78%     30 29.99      
Jan 19 10:53 3 5 Haze SCT020 BKN027 62 54     75%     30.02 30.01      
Jan 19 09:53 ESE 7 5 Haze SCT017 BKN025 61 55     81%     30.03 30.02      
Jan 19 08:53 SE 5 5 Fog/Mist BKN019 BKN025 60 56     86%     30.03 30.03      
Jan 19 06:53 ESE 6 7 Cloudy SCT009 OVC010 58 56     93%     30.01 30.01      
Jan 19 05:53 Calm 7 Patchy Fog SKC OVC008 57 57     100%     30.01 30.01      
Jan 19 04:53 E 6 3 Patchy Fog and Fog/Mist SKC SCT003 BKN009 54 54     100%     30 29.99      
Jan 19 04:44 E 5 2 Patchy Fog and Fog/Mist SKC SCT003 BKN009 55 55     100%     30        
Jan 19 04:22 Calm 0.5 Fog SKC BKN003 BKN007 55 55     100%     30.01        
Jan 19 03:58 E 3 0.25 Fog BKN002 54 54     100%     30.01        
Jan 19 03:53 E 5 0.5 Fog BKN002 54 54     100%     30.01 30      
Jan 19 03:49 E 3 0.5 Fog BKN002 54 54     100%     30.01        
Jan 19 02:53 E 3 0.25 Fog VV002 55 55     100%     30.02 30.01      
Jan 19 02:30 E 5 0.25 Fog VV003 55 55     100%     30.02        
Jan 19 02:14 E 5 0.75 Patchy Fog and Fog/Mist SKC BKN006 55 55     100%     30.03        
Jan 19 02:11 E 5 1.25 Patchy Fog and Fog/Mist SKC BKN008 55 55     100%     30.03        
Jan 19 01:53 E 6 6 Fog/Mist BKN010 56 55     97%     30.03 30.02      
Jan 19 01:30 Calm 7 Mostly Cloudy BKN010 58 57     97%     30.03        
Jan 18 23:53 Calm 9 Partly Cloudy SCT010 59 57     93%     30.04 30.03      
Jan 18 22:53 Calm 10 Mostly Clear FEW002 61 56     83%     30.04 30.03      
Jan 18 21:53 WSW 5 10 Mostly Clear FEW170 61 59     93%     30.04 30.03      
Jan 18 19:53 SW 5 10 Mostly Cloudy FEW004 FEW020 BKN170 61 59     93%     30.03 30.03      
Jan 18 18:53 WSW 7 10 Mostly Cloudy SCT004 BKN170 61 60     97%     30.02 30.02      
Jan 18 17:53 W 10 10 Partly Cloudy FEW010 FEW200 SCT250 63 56     78%     30.02 30.02      
Jan 18 16:53 SSW 3 10 Mostly Clear FEW200 FEW250 68 48     49%     30.01 30.01      
Jan 18 15:53 Calm 10 Mostly Clear FEW200 FEW250 71 50     47%   70 30.02 30.02      
Jan 18 14:53 W 5 10 Mostly Clear FEW200 FEW250 68 52     57%     30.03 30.03      
Jan 18 13:53 SW 10 8 Partly Cloudy FEW025 FEW160 SCT200 67 56     68%     30.05 30.04      
Jan 18 12:53 W 10 7 Partly Cloudy FEW025 FEW160 SCT180 68 55     63%     30.07 30.06      
Jan 18 11:53 W 11 6 Haze FEW040 FEW160 SCT180 70 56     61%     30.07 30.07      
Jan 18 10:53 Calm 10 Partly Cloudy FEW032 FEW140 SCT160 70 49     47%     30.1 30.1      
Jan 18 09:53 ESE 5 10 Partly Cloudy FEW030 FEW160 SCT180 67 45     45%     30.11 30.11      
Jan 18 08:53 ESE 5 10 Partly Cloudy FEW027 FEW160 SCT180 62 48     60%     30.1 30.1      
Jun 12 02:53 E 6 10 Mostly Clear FEW090 FEW220 57 51     81%     29.97 29.96      
Jun 10 23:53 SW 6 10 Clear   63 57     81%     29.87 29.86      
Jun 10 06:53 WSW 6 10 Cloudy BKN020 OVC026 62 58     86%     29.88 29.87      
Jun 10 05:53 WSW 3 10 Mostly Cloudy BKN023 62 57     84%     29.87 29.86      
Jun 09 15:53 WSW 14 10 Partly Cloudy FEW013 SCT100 69 60     73%     29.91 29.9      
Jun 09 12:53 WSW 14 9 Mostly Clear FEW017 FEW120 70 55     59%     29.96 29.95      
Jun 09 00:53 SSW 3 10 Mostly Clear FEW011 61 56     83%     29.94 29.93      
Jun 08 16:53 WSW 21 10 Clear and Windy   67 57     71%     29.95 29.95      
Jun 08 05:53 W 7 4 Clear   61 60     97%     29.99 29.98 0    
Jun 07 15:53 WSW 13 10 Mostly Clear FEW022 68 59     73%     29.94 29.93      
Jun 07 12:53 7 7 Cloudy OVC016 65 59     81%     29.98 29.98      
Jun 07 10:53 WSW 9 6 Haze SCT012 OVC014 63 59     87%     29.97 29.97     0
Jun 07 09:53 WSW 7 5 Fog/Mist BKN013 OVC018 63 59     87%     29.96 29.96